| time (UTC) | temp C | wind direction | speed KPH | gust KPH | rain 1hr cm | rain 24hr cm | rain mn cm | humidity % | barometer mb |
| 20260504060107 | 13 | 210 | 0.0 | 9.7 | 0.05 | 0.91 | 0.36 | 98 | 1011.6 |
| 20260504050014 | 13 | 247 | 3.2 | 6.4 | 0.05 | 0.89 | 0.33 | 98 | 1011.2 |
| 20260504045943 | 13 | 247 | 3.2 | 6.4 | 0.05 | 0.89 | 0.33 | 98 | 1011.3 |
| 20260504045851 | 13 | 245 | 1.6 | 6.4 | 0.05 | 0.91 | 0.33 | 98 | 1011.4 |
| 20260504045717 | 13 | 245 | 3.2 | 6.4 | 0.05 | 0.91 | 0.33 | 98 | 1011.3 |
| 20260504045532 | 13 | 259 | 1.6 | 6.4 | 0.05 | 0.91 | 0.33 | 98 | 1011.2 |
| 20260504045150 | 13 | 209 | 0.0 | 3.2 | 0.05 | 0.91 | 0.33 | 98 | 1011.2 |
| 20260504044953 | 13 | 211 | 0.0 | 3.2 | 0.05 | 0.89 | 0.30 | 98 | 1011.1 |
| 20260504044703 | 13 | 211 | 0.0 | 3.2 | 0.05 | 0.89 | 0.30 | 98 | 1011.2 |
| 20260504044613 | 13 | 211 | 0.0 | 3.2 | 0.05 | 0.89 | 0.30 | 98 | 1011.2 |
| 20260504044339 | 13 | 215 | 0.0 | 3.2 | 0.05 | 0.89 | 0.30 | 98 | 1011.1 |
| 20260504044323 | 13 | 215 | 0.0 | 3.2 | 0.05 | 0.89 | 0.30 | 98 | 1011.2 |
| 20260504044221 | 13 | 197 | 0.0 | 1.6 | 0.05 | 0.89 | 0.30 | 98 | 1011.2 |
| 20260504044100 | 13 | 196 | 0.0 | 1.6 | 0.05 | 0.89 | 0.30 | 98 | 1011.1 |
| 20260504043740 | 13 | 175 | 0.0 | 0.0 | 0.05 | 0.89 | 0.30 | 98 | 1011.2 |
| 20260504043652 | 13 | 175 | 0.0 | 0.0 | 0.05 | 0.89 | 0.30 | 98 | 1011.2 |
| 20260504043552 | 13 | 175 | 0.0 | 0.0 | 0.05 | 0.89 | 0.30 | 98 | 1011.2 |
| 20260504043533 | 13 | 175 | 0.0 | 1.6 | 0.05 | 0.89 | 0.30 | 98 | 1011.2 |
| 20260504043156 | 13 | 175 | 0.0 | 1.6 | 0.05 | 0.89 | 0.30 | 98 | 1011.1 |
| 20260504043135 | 13 | 175 | 0.0 | 1.6 | 0.05 | 0.89 | 0.30 | 98 | 1011.2 |
| 20260504043057 | 13 | 175 | 0.0 | 1.6 | 0.05 | 0.89 | 0.30 | 98 | 1011.2 |
| 20260504043018 | 13 | 175 | 0.0 | 1.6 | 0.05 | 0.89 | 0.30 | 98 | 1011.2 |
| 20260504042920 | 13 | 175 | 0.0 | 1.6 | 0.05 | 0.89 | 0.30 | 98 | 1011.2 |
| 20260504042857 | 13 | 175 | 0.0 | 1.6 | 0.05 | 0.89 | 0.30 | 98 | 1011.2 |
| 20260504042726 | 13 | 175 | 0.0 | 1.6 | 0.05 | 0.89 | 0.28 | 98 | 1011.2 |
| 20260504042608 | 13 | 175 | 0.0 | 1.6 | 0.05 | 0.89 | 0.28 | 98 | 1011.2 |
| 20260504042523 | 13 | 190 | 0.0 | 1.6 | 0.05 | 0.89 | 0.28 | 98 | 1011.3 |
| 20260504042423 | 13 | 190 | 0.0 | 1.6 | 0.05 | 0.89 | 0.28 | 98 | 1011.3 |
| 20260504042332 | 13 | 190 | 0.0 | 1.6 | 0.05 | 0.89 | 0.28 | 98 | 1011.2 |
| 20260504042313 | 13 | 190 | 0.0 | 3.2 | 0.05 | 0.89 | 0.28 | 98 | 1011.3 |
| 20260504042229 | 13 | 190 | 0.0 | 3.2 | 0.05 | 0.89 | 0.28 | 98 | 1011.1 |
| 20260504042114 | 13 | 190 | 0.0 | 3.2 | 0.05 | 0.89 | 0.28 | 98 | 1011.2 |
| 20260504042023 | 13 | 190 | 0.0 | 3.2 | 0.05 | 0.89 | 0.28 | 98 | 1011.3 |
| 20260504041935 | 13 | 190 | 0.0 | 3.2 | 0.05 | 0.89 | 0.28 | 98 | 1011.2 |
| 20260504041842 | 13 | 190 | 0.0 | 3.2 | 0.05 | 0.89 | 0.28 | 98 | 1011.3 |
| 20260504041817 | 13 | 166 | 0.0 | 1.6 | 0.05 | 0.89 | 0.28 | 98 | 1011.2 |
| 20260504041723 | 13 | 162 | 0.0 | 1.6 | 0.05 | 0.89 | 0.28 | 98 | 1011.3 |
| 20260504041333 | 13 | 161 | 0.0 | 1.6 | 0.05 | 0.89 | 0.28 | 98 | 1011.4 |
| 20260504041303 | 13 | 161 | 0.0 | 1.6 | 0.05 | 0.89 | 0.28 | 98 | 1011.3 |
| 20260504041204 | 13 | 161 | 0.0 | 1.6 | 0.05 | 0.89 | 0.25 | 98 | 1011.3 |
| 20260504041110 | 13 | 161 | 0.0 | 1.6 | 0.05 | 0.89 | 0.25 | 98 | 1011.4 |
| 20260504041048 | 13 | 161 | 0.0 | 1.6 | 0.05 | 0.89 | 0.25 | 98 | 1011.3 |
| 20260504041004 | 13 | 161 | 0.0 | 1.6 | 0.05 | 0.89 | 0.25 | 98 | 1011.3 |
| 20260504040904 | 13 | 190 | 0.0 | 0.0 | 0.05 | 0.89 | 0.25 | 98 | 1011.5 |
| 20260504040847 | 13 | 190 | 0.0 | 0.0 | 0.05 | 0.89 | 0.25 | 98 | 1011.4 |
| 20260504040758 | 13 | 190 | 0.0 | 0.0 | 0.05 | 0.89 | 0.25 | 98 | 1011.5 |
| 20260504040721 | 13 | 190 | 0.0 | 0.0 | 0.05 | 0.89 | 0.25 | 98 | 1011.5 |
| 20260504040645 | 13 | 190 | 0.0 | 3.2 | 0.05 | 0.89 | 0.25 | 98 | 1011.5 |
| 20260504040627 | 13 | 190 | 0.0 | 3.2 | 0.05 | 0.89 | 0.25 | 98 | 1011.5 |
| 20260504040535 | 13 | 190 | 0.0 | 3.2 | 0.05 | 0.89 | 0.25 | 98 | 1011.5 |
| 20260504040439 | 13 | 190 | 0.0 | 3.2 | 0.05 | 0.89 | 0.25 | 98 | 1011.5 |
| 20260504040024 | 13 | 190 | 0.0 | 3.2 | 0.05 | 0.86 | 0.25 | 98 | 1011.4 |
| 20260504035918 | 13 | 223 | 0.0 | 3.2 | 0.05 | 0.86 | 0.23 | 98 | 1011.4 |
| 20260504035847 | 13 | 223 | 0.0 | 3.2 | 0.05 | 0.86 | 0.23 | 98 | 1011.4 |
| 20260504035745 | 13 | 223 | 0.0 | 3.2 | 0.05 | 0.86 | 0.23 | 98 | 1011.4 |
| 20260504035629 | 13 | 219 | 1.6 | 3.2 | 0.05 | 0.86 | 0.23 | 98 | 1011.4 |
| 20260504035305 | 13 | 228 | 1.6 | 3.2 | 0.05 | 0.89 | 0.23 | 98 | 1011.5 |
| 20260504035201 | 13 | 228 | 1.6 | 3.2 | 0.05 | 0.89 | 0.23 | 98 | 1011.5 |
| 20260504034812 | 13 | 247 | 1.6 | 3.2 | 0.05 | 0.89 | 0.23 | 98 | 1011.3 |
| 20260504034648 | 14 | 248 | 1.6 | 3.2 | 0.05 | 0.89 | 0.23 | 98 | 1011.5 |
| 20260504034514 | 14 | 241 | 0.0 | 3.2 | 0.05 | 0.89 | 0.23 | 98 | 1011.5 |
| 20260504034149 | 14 | 241 | 0.0 | 3.2 | 0.05 | 0.89 | 0.23 | 98 | 1011.4 |
| 20260504034037 | 14 | 195 | 0.0 | 3.2 | 0.05 | 0.89 | 0.23 | 98 | 1011.3 |
| 20260504033741 | 14 | 195 | 0.0 | 3.2 | 0.05 | 0.89 | 0.23 | 98 | 1011.5 |
| 20260504033650 | 14 | 195 | 0.0 | 3.2 | 0.05 | 0.86 | 0.23 | 98 | 1011.4 |
| 20260504033528 | 14 | 195 | 0.0 | 3.2 | 0.05 | 0.86 | 0.23 | 98 | 1011.6 |
| 20260504033458 | 14 | 195 | 0.0 | 3.2 | 0.05 | 0.86 | 0.23 | 98 | 1011.6 |
| 20260504033041 | 14 | 213 | 1.6 | 3.2 | 0.05 | 0.86 | 0.23 | 98 | 1011.8 |
| 20260504032947 | 14 | 213 | 1.6 | 3.2 | 0.05 | 0.86 | 0.23 | 98 | 1011.7 |
| 20260504032546 | 14 | 216 | 0.0 | 3.2 | 0.05 | 0.86 | 0.23 | 98 | 1011.8 |
| 20260504032437 | 14 | 221 | 0.0 | 3.2 | 0.05 | 0.86 | 0.23 | 98 | 1011.8 |
| 20260504032420 | 14 | 218 | 0.0 | 3.2 | 0.05 | 0.86 | 0.23 | 98 | 1011.8 |
| 20260504032307 | 14 | 216 | 1.6 | 4.8 | 0.05 | 0.86 | 0.23 | 98 | 1011.8 |
| 20260504031904 | 14 | 243 | 1.6 | 4.8 | 0.05 | 0.86 | 0.23 | 98 | 1011.9 |
| 20260504031831 | 14 | 243 | 1.6 | 4.8 | 0.05 | 0.86 | 0.23 | 98 | 1011.8 |
| 20260504031709 | 14 | 207 | 1.6 | 4.8 | 0.05 | 0.86 | 0.23 | 98 | 1011.9 |
| 20260504031532 | 14 | 242 | 3.2 | 4.8 | 0.05 | 0.86 | 0.23 | 98 | 1011.9 |
| 20260504031028 | 14 | 240 | 1.6 | 4.8 | 0.05 | 0.84 | 0.20 | 98 | 1011.9 |
| 20260504030937 | 14 | 246 | 1.6 | 4.8 | 0.05 | 0.84 | 0.20 | 98 | 1011.9 |
| 20260504030853 | 14 | 229 | 1.6 | 4.8 | 0.05 | 0.84 | 0.20 | 98 | 1011.9 |
| 20260504030741 | 14 | 221 | 1.6 | 4.8 | 0.05 | 0.86 | 0.20 | 98 | 1011.9 |
| 20260504030552 | 14 | 240 | 1.6 | 4.8 | 0.05 | 0.86 | 0.20 | 98 | 1011.9 |
| 20260504030444 | 14 | 243 | 1.6 | 4.8 | 0.05 | 0.86 | 0.20 | 98 | 1011.9 |
| 20260504030316 | 14 | 237 | 1.6 | 4.8 | 0.05 | 0.86 | 0.20 | 98 | 1011.8 |
| 20260504030215 | 14 | 279 | 1.6 | 3.2 | 0.05 | 0.86 | 0.20 | 98 | 1011.8 |
| 20260504025810 | 14 | 247 | 1.6 | 4.8 | 0.05 | 0.86 | 0.20 | 98 | 1011.8 |
| 20260504025437 | 14 | 217 | 0.0 | 4.8 | 0.05 | 0.86 | 0.20 | 97 | 1011.8 |
| 20260504025315 | 14 | 217 | 1.6 | 4.8 | 0.05 | 0.86 | 0.20 | 97 | 1012.0 |
| 20260504025148 | 14 | 217 | 3.2 | 4.8 | 0.05 | 0.86 | 0.20 | 97 | 1011.9 |
| 20260504024807 | 14 | 206 | 1.6 | 8.0 | 0.05 | 0.86 | 0.20 | 97 | 1011.9 |
| 20260504024640 | 14 | 190 | 0.0 | 8.0 | 0.05 | 0.86 | 0.20 | 97 | 1011.8 |
| 20260504024321 | 14 | 190 | 0.0 | 8.0 | 0.05 | 0.86 | 0.20 | 97 | 1012.0 |
| 20260504024156 | 14 | 190 | 1.6 | 8.0 | 0.03 | 0.84 | 0.18 | 98 | 1011.9 |
| 20260504024030 | 14 | 174 | 4.8 | 8.0 | 0.05 | 0.84 | 0.18 | 98 | 1011.8 |
| 20260504023949 | 14 | 184 | 6.4 | 8.0 | 0.05 | 0.84 | 0.18 | 98 | 1011.7 |
| 20260504023855 | 14 | 149 | 6.4 | 8.0 | 0.05 | 0.84 | 0.18 | 98 | 1011.8 |
| 20260504023711 | 14 | 124 | 1.6 | 8.0 | 0.05 | 0.84 | 0.18 | 98 | 1011.6 |
| 20260504023523 | 14 | 144 | 0.0 | 11.3 | 0.05 | 0.84 | 0.18 | 98 | 1011.7 |
| 20260504023357 | 14 | 193 | 1.6 | 11.3 | 0.05 | 0.84 | 0.18 | 97 | 1011.8 |
| 20260504023253 | 14 | 222 | 0.0 | 11.3 | 0.05 | 0.84 | 0.18 | 97 | 1011.7 |
| 20260504022906 | 14 | 308 | 0.0 | 11.3 | 0.05 | 0.84 | 0.18 | 97 | 1011.7 |
| 20260504022814 | 14 | 308 | 4.8 | 11.3 | 0.05 | 0.84 | 0.18 | 97 | 1011.8 |
| 20260504022635 | 14 | 270 | 4.8 | 8.0 | 0.05 | 0.84 | 0.18 | 97 | 1011.8 |
| 20260504022107 | 14 | 232 | 3.2 | 8.0 | 0.05 | 0.86 | 0.18 | 97 | 1011.9 |
| 20260504022012 | 14 | 226 | 1.6 | 11.3 | 0.05 | 0.86 | 0.18 | 98 | 1011.8 |
| 20260504021917 | 14 | 232 | 0.0 | 11.3 | 0.05 | 0.86 | 0.18 | 97 | 1011.7 |
| 20260504021746 | 14 | 189 | 0.0 | 11.3 | 0.05 | 0.86 | 0.18 | 97 | 1011.6 |
| 20260504021641 | 14 | 178 | 3.2 | 11.3 | 0.05 | 0.86 | 0.18 | 97 | 1011.4 |
| 20260504021517 | 14 | 180 | 3.2 | 11.3 | 0.03 | 0.84 | 0.18 | 97 | 1011.2 |
| 20260504020737 | 14 | 90 | 4.8 | 11.3 | 0.05 | 0.84 | 0.15 | 97 | 1011.0 |
| 20260504020600 | 14 | 98 | 4.8 | 9.7 | 0.05 | 0.84 | 0.15 | 98 | 1011.1 |
| 20260504020411 | 14 | 67 | 4.8 | 9.7 | 0.05 | 0.84 | 0.15 | 98 | 1011.0 |
| 20260504020013 | 14 | 63 | 3.2 | 9.7 | 0.05 | 0.84 | 0.15 | 97 | 1011.0 |
| 20260504015818 | 14 | 67 | 6.4 | 9.7 | 0.05 | 0.84 | 0.15 | 98 | 1010.9 |
| 20260504015724 | 14 | 63 | 4.8 | 9.7 | 0.05 | 0.84 | 0.15 | 98 | 1011.1 |
| 20260504015630 | 14 | 74 | 4.8 | 9.7 | 0.05 | 0.84 | 0.15 | 98 | 1011.0 |
| 20260504015441 | 14 | 61 | 1.6 | 9.7 | 0.05 | 0.84 | 0.15 | 98 | 1011.0 |
| 20260504015304 | 14 | 91 | 3.2 | 14.5 | 0.05 | 0.84 | 0.15 | 98 | 1011.1 |
| 20260504015127 | 14 | 60 | 3.2 | 14.5 | 0.05 | 0.84 | 0.15 | 97 | 1011.0 |
| 20260504014953 | 14 | 81 | 6.4 | 14.5 | 0.05 | 0.84 | 0.15 | 98 | 1010.9 |
| 20260504014559 | 14 | 69 | 8.0 | 14.5 | 0.05 | 0.84 | 0.15 | 98 | 1010.8 |
| 20260504014408 | 14 | 59 | 9.7 | 14.5 | 0.05 | 0.84 | 0.15 | 98 | 1010.8 |
| 20260504013615 | 14 | 71 | 4.8 | 14.5 | 0.05 | 0.84 | 0.15 | 98 | 1011.0 |
| 20260504013415 | 14 | 75 | 4.8 | 9.7 | 0.05 | 0.81 | 0.15 | 98 | 1011.0 |
| 20260504013320 | 14 | 57 | 4.8 | 9.7 | 0.05 | 0.81 | 0.15 | 98 | 1011.1 |
| 20260504012838 | 14 | 80 | 6.4 | 11.3 | 0.05 | 0.81 | 0.15 | 98 | 1011.0 |
| 20260504012642 | 14 | 67 | 6.4 | 12.9 | 0.05 | 0.84 | 0.15 | 98 | 1011.0 |
| 20260504012459 | 14 | 58 | 6.4 | 12.9 | 0.05 | 0.84 | 0.15 | 98 | 1011.1 |
| 20260504012003 | 14 | 49 | 6.4 | 12.9 | 0.05 | 0.84 | 0.15 | 98 | 1011.1 |
| 20260504011909 | 14 | 86 | 6.4 | 12.9 | 0.05 | 0.84 | 0.15 | 98 | 1011.1 |
| 20260504011716 | 14 | 40 | 4.8 | 12.9 | 0.05 | 0.84 | 0.15 | 98 | 1011.1 |
| 20260504011523 | 14 | 51 | 8.0 | 11.3 | 0.05 | 0.84 | 0.15 | 98 | 1011.1 |
| 20260504011345 | 14 | 44 | 4.8 | 11.3 | 0.05 | 0.84 | 0.15 | 98 | 1011.1 |
| 20260504010849 | 14 | 51 | 4.8 | 9.7 | 0.05 | 0.84 | 0.15 | 98 | 1011.1 |
| 20260504010755 | 14 | 67 | 4.8 | 9.7 | 0.05 | 0.84 | 0.15 | 98 | 1011.1 |
| 20260504010213 | 14 | 53 | 6.4 | 9.7 | 0.05 | 0.84 | 0.15 | 98 | 1011.1 |
| 20260504010043 | 14 | 57 | 6.4 | 9.7 | 0.05 | 0.84 | 0.15 | 98 | 1011.0 |
| 20260504005845 | 14 | 76 | 6.4 | 9.7 | 0.05 | 0.81 | 0.13 | 98 | 1011.1 |
| 20260504005749 | 14 | 66 | 6.4 | 9.7 | 0.05 | 0.81 | 0.13 | 98 | 1011.2 |
| 20260504005700 | 14 | 53 | 4.8 | 9.7 | 0.05 | 0.81 | 0.13 | 98 | 1011.2 |
| 20260504004922 | 14 | 80 | 4.8 | 9.7 | 0.05 | 0.81 | 0.13 | 98 | 1011.1 |
| 20260504004742 | 15 | 113 | 6.4 | 11.3 | 0.05 | 0.81 | 0.13 | 97 | 1011.2 |
| 20260504004547 | 14 | 44 | 3.2 | 11.3 | 0.05 | 0.81 | 0.13 | 98 | 1011.2 |
| 20260504004448 | 15 | 66 | 3.2 | 11.3 | 0.05 | 0.81 | 0.13 | 97 | 1011.2 |
| 20260504004354 | 15 | 62 | 3.2 | 11.3 | 0.05 | 0.81 | 0.13 | 98 | 1011.2 |
| 20260504004202 | 15 | 51 | 6.4 | 11.3 | 0.05 | 0.81 | 0.13 | 97 | 1011.2 |
| 20260504003810 | 14 | 42 | 3.2 | 11.3 | 0.05 | 0.81 | 0.13 | 98 | 1011.2 |
| 20260504003628 | 15 | 61 | 3.2 | 8.0 | 0.05 | 0.81 | 0.13 | 98 | 1011.4 |
| 20260504003139 | 15 | 55 | 3.2 | 8.0 | 0.05 | 0.81 | 0.13 | 97 | 1011.4 |
| 20260504002312 | 15 | 45 | 4.8 | 8.0 | 0.05 | 0.84 | 0.13 | 97 | 1011.4 |
| 20260504002136 | 15 | 55 | 4.8 | 6.4 | 0.05 | 0.81 | 0.10 | 97 | 1011.5 |
| 20260504001943 | 15 | 53 | 1.6 | 6.4 | 0.05 | 0.81 | 0.10 | 97 | 1011.4 |
| 20260504001847 | 15 | 18 | 1.6 | 6.4 | 0.05 | 0.81 | 0.10 | 97 | 1011.5 |
| 20260504001423 | 15 | 345 | 0.0 | 6.4 | 0.05 | 0.81 | 0.10 | 97 | 1011.5 |
| 20260504001311 | 15 | 345 | 1.6 | 6.4 | 0.05 | 0.81 | 0.10 | 97 | 1011.4 |
| 20260504000924 | 15 | 9 | 3.2 | 6.4 | 0.05 | 0.81 | 0.10 | 97 | 1011.3 |
| 20260504000802 | 15 | 9 | 0.0 | 6.4 | 0.05 | 0.81 | 0.10 | 97 | 1011.4 |
| 20260504000723 | 15 | 9 | 1.6 | 6.4 | 0.05 | 0.81 | 0.10 | 97 | 1011.4 |
| 20260504000654 | 15 | 9 | 3.2 | 6.4 | 0.05 | 0.81 | 0.10 | 97 | 1011.3 |
| 20260504000534 | 15 | 352 | 4.8 | 6.4 | 0.05 | 0.81 | 0.10 | 97 | 1011.5 |
| 20260504000347 | 15 | 0 | 3.2 | 6.4 | 0.05 | 0.81 | 0.10 | 97 | 1011.5 |
| 20260504000219 | 15 | 5 | 3.2 | 6.4 | 0.05 | 0.81 | 0.10 | 97 | 1011.5 |
| 20260504000058 | 15 | 5 | 3.2 | 6.4 | 0.05 | 0.81 | 0.10 | 97 | 1011.6 |
| 20260504000015 | 15 | 352 | 3.2 | 6.4 | 0.05 | 0.81 | 0.10 | 97 | 1011.5 |
| 20260503235925 | 15 | 348 | 3.2 | 6.4 | 0.05 | 0.81 | 0.10 | 97 | 1011.4 |
| 20260503235732 | 15 | 15 | 3.2 | 6.4 | 0.05 | 0.79 | 0.08 | 97 | 1011.5 |
| 20260503235559 | 15 | 352 | 1.6 | 8.0 | 0.05 | 0.79 | 0.08 | 97 | 1011.4 |
| 20260503235215 | 15 | 26 | 3.2 | 8.0 | 0.05 | 0.79 | 0.08 | 97 | 1011.4 |
| 20260503235041 | 15 | 11 | 3.2 | 8.0 | 0.05 | 0.79 | 0.08 | 97 | 1011.5 |
| 20260503234655 | 15 | 0 | 4.8 | 8.0 | 0.05 | 0.79 | 0.08 | 97 | 1011.5 |
| 20260503234516 | 15 | 0 | 4.8 | 8.0 | 0.05 | 0.79 | 0.08 | 97 | 1011.5 |
| 20260503234347 | 15 | 5 | 1.6 | 6.4 | 0.05 | 0.79 | 0.08 | 97 | 1011.5 |
| 20260503234012 | 15 | 5 | 3.2 | 6.4 | 0.05 | 0.79 | 0.08 | 97 | 1011.5 |
| 20260503233607 | 15 | 5 | 3.2 | 6.4 | 0.05 | 0.81 | 0.08 | 97 | 1011.6 |
| 20260503233527 | 15 | 5 | 3.2 | 6.4 | 0.05 | 0.81 | 0.08 | 97 | 1011.6 |
| 20260503233411 | 15 | 5 | 3.2 | 6.4 | 0.05 | 0.81 | 0.08 | 97 | 1011.6 |
| 20260503233305 | 15 | 5 | 3.2 | 6.4 | 0.05 | 0.81 | 0.08 | 97 | 1011.7 |
| 20260503232812 | 15 | 0 | 3.2 | 6.4 | 0.05 | 0.79 | 0.05 | 97 | 1011.7 |
| 20260503232725 | 15 | 0 | 3.2 | 6.4 | 0.05 | 0.79 | 0.05 | 97 | 1011.7 |
| 20260503232306 | 15 | 352 | 3.2 | 6.4 | 0.05 | 0.79 | 0.05 | 97 | 1011.7 |
| 20260503232158 | 15 | 352 | 4.8 | 6.4 | 0.05 | 0.79 | 0.05 | 97 | 1011.7 |
| 20260503232152 | 15 | 352 | 4.8 | 6.4 | 0.05 | 0.79 | 0.05 | 97 | 1011.7 |
| 20260503232028 | 15 | 9 | 3.2 | 6.4 | 0.05 | 0.79 | 0.05 | 96 | 1011.7 |
| 20260503231845 | 15 | 5 | 1.6 | 8.0 | 0.05 | 0.79 | 0.05 | 96 | 1011.7 |
| 20260503231522 | 15 | 5 | 3.2 | 8.0 | 0.05 | 0.79 | 0.05 | 96 | 1011.7 |
| 20260503231333 | 15 | 0 | 3.2 | 8.0 | 0.05 | 0.79 | 0.05 | 96 | 1011.8 |
| 20260503231233 | 15 | 0 | 3.2 | 8.0 | 0.05 | 0.79 | 0.05 | 96 | 1011.8 |
| 20260503231214 | 15 | 0 | 3.2 | 8.0 | 0.05 | 0.79 | 0.05 | 96 | 1011.8 |
| 20260503231040 | 15 | 0 | 4.8 | 8.0 | 0.05 | 0.79 | 0.05 | 96 | 1011.7 |
| 20260503230821 | 15 | 350 | 3.2 | 8.0 | 0.05 | 0.79 | 0.05 | 96 | 1011.7 |
| 20260503230708 | 15 | 350 | 3.2 | 8.0 | 0.05 | 0.79 | 0.05 | 96 | 1011.7 |
| 20260503230218 | 15 | 351 | 3.2 | 4.8 | 0.05 | 0.79 | 0.05 | 96 | 1011.7 |
| 20260503225805 | 15 | 45 | 1.6 | 3.2 | 0.05 | 0.79 | 0.05 | 96 | 1011.8 |
| 20260503225610 | 15 | 45 | 0.0 | 1.6 | 0.05 | 0.79 | 0.05 | 96 | 1011.8 |
| 20260503225502 | 15 | 45 | 0.0 | 1.6 | 0.05 | 0.79 | 0.05 | 96 | 1012.0 |
| 20260503225114 | 15 | 45 | 0.0 | 1.6 | 0.05 | 0.79 | 0.05 | 96 | 1011.9 |
| 20260503225047 | 15 | 45 | 0.0 | 1.6 | 0.05 | 0.79 | 0.05 | 96 | 1011.9 |
| 20260503224957 | 15 | 45 | 0.0 | 1.6 | 0.05 | 0.79 | 0.05 | 96 | 1011.9 |
| 20260503224824 | 15 | 45 | 0.0 | 1.6 | 0.05 | 0.79 | 0.05 | 95 | 1011.9 |
| 20260503224722 | 15 | 45 | 0.0 | 1.6 | 0.05 | 0.79 | 0.03 | 95 | 1012.0 |
| 20260503224629 | 15 | 45 | 0.0 | 1.6 | 0.05 | 0.79 | 0.03 | 95 | 1012.0 |
| 20260503224547 | 15 | 45 | 0.0 | 1.6 | 0.05 | 0.79 | 0.03 | 95 | 1011.9 |
| 20260503224522 | 15 | 45 | 0.0 | 1.6 | 0.05 | 0.79 | 0.03 | 95 | 1011.9 |
| 20260503224424 | 15 | 45 | 0.0 | 3.2 | 0.05 | 0.79 | 0.03 | 95 | 1011.9 |
| 20260503224308 | 15 | 45 | 0.0 | 3.2 | 0.05 | 0.79 | 0.03 | 95 | 1011.9 |
| 20260503224218 | 15 | 45 | 0.0 | 3.2 | 0.05 | 0.79 | 0.03 | 95 | 1011.9 |
| 20260503224111 | 15 | 45 | 1.6 | 3.2 | 0.05 | 0.79 | 0.03 | 95 | 1011.8 |
| 20260503224025 | 15 | 45 | 1.6 | 3.2 | 0.05 | 0.79 | 0.03 | 95 | 1011.8 |
| 20260503223943 | 15 | 45 | 1.6 | 3.2 | 0.05 | 0.79 | 0.03 | 95 | 1011.8 |
| 20260503223812 | 15 | 45 | 1.6 | 3.2 | 0.05 | 0.79 | 0.03 | 95 | 1011.8 |
| 20260503223700 | 15 | 68 | 0.0 | 3.2 | 0.05 | 0.79 | 0.03 | 95 | 1011.8 |
| 20260503223403 | 15 | 68 | 0.0 | 4.8 | 0.05 | 0.76 | 0.03 | 95 | 1011.8 |
| 20260503223303 | 15 | 68 | 0.0 | 6.4 | 0.05 | 0.76 | 0.00 | 95 | 1011.9 |
| 20260503223226 | 15 | 68 | 0.0 | 6.4 | 0.05 | 0.76 | 0.00 | 95 | 1011.8 |
| 20260503223146 | 15 | 68 | 1.6 | 6.4 | 0.05 | 0.76 | 0.00 | 95 | 1011.8 |
| 20260503223018 | 15 | 68 | 3.2 | 6.4 | 0.05 | 0.76 | 0.00 | 95 | 1011.8 |
| 20260503222847 | 15 | 58 | 3.2 | 6.4 | 0.05 | 0.76 | 0.00 | 95 | 1011.8 |
| 20260503222737 | 15 | 98 | 1.6 | 6.4 | 0.05 | 0.76 | 0.00 | 95 | 1011.8 |
| 20260503222552 | 15 | 95 | 1.6 | 4.8 | 0.05 | 0.76 | 0.00 | 95 | 1011.7 |
| 20260503222504 | 15 | 106 | 3.2 | 4.8 | 0.05 | 0.76 | 0.00 | 95 | 1011.8 |
| 20260503221709 | 15 | 89 | 3.2 | 6.4 | 0.05 | 0.76 | 0.76 | 95 | 1011.8 |
| 20260503221540 | 15 | 61 | 3.2 | 9.7 | 0.05 | 0.79 | 0.76 | 94 | 1011.8 |
| 20260503221354 | 15 | 106 | 3.2 | 9.7 | 0.05 | 0.79 | 0.76 | 94 | 1011.8 |
| 20260503221306 | 15 | 73 | 1.6 | 9.7 | 0.05 | 0.76 | 0.76 | 94 | 1011.9 |
| 20260503221205 | 15 | 115 | 3.2 | 9.7 | 0.05 | 0.76 | 0.74 | 94 | 1011.9 |
| 20260503221021 | 15 | 119 | 3.2 | 9.7 | 0.05 | 0.76 | 0.74 | 94 | 1011.8 |
| 20260503220855 | 15 | 117 | 4.8 | 9.7 | 0.05 | 0.76 | 0.74 | 94 | 1011.8 |
| 20260503220837 | 15 | 123 | 4.8 | 9.7 | 0.05 | 0.76 | 0.74 | 94 | 1011.8 |
| 20260503220655 | 15 | 109 | 3.2 | 6.4 | 0.05 | 0.76 | 0.74 | 94 | 1011.9 |
| 20260503220508 | 15 | 102 | 4.8 | 6.4 | 0.05 | 0.76 | 0.74 | 94 | 1011.9 |
| 20260503220424 | 15 | 86 | 4.8 | 6.4 | 0.05 | 0.76 | 0.74 | 94 | 1011.8 |
| 20260503220321 | 15 | 88 | 3.2 | 6.4 | 0.05 | 0.76 | 0.74 | 94 | 1011.9 |
| 20260503220127 | 15 | 97 | 3.2 | 9.7 | 0.05 | 0.76 | 0.74 | 94 | 1012.0 |
| 20260503220001 | 15 | 121 | 3.2 | 9.7 | 0.05 | 0.76 | 0.74 | 94 | 1012.0 |
| 20260503215945 | 15 | 128 | 3.2 | 9.7 | 0.05 | 0.76 | 0.74 | 94 | 1011.9 |
| 20260503215812 | 15 | 148 | 4.8 | 9.7 | 0.05 | 0.76 | 0.74 | 94 | 1012.0 |
| 20260503215614 | 15 | 143 | 4.8 | 9.7 | 0.05 | 0.76 | 0.74 | 94 | 1012.0 |
| 20260503215217 | 15 | 119 | 4.8 | 9.7 | 0.05 | 0.74 | 0.74 | 94 | 1012.0 |
| 20260503215014 | 15 | 130 | 3.2 | 6.4 | 0.05 | 0.74 | 0.71 | 94 | 1012.0 |
| 20260503214846 | 15 | 130 | 3.2 | 6.4 | 0.05 | 0.74 | 0.71 | 94 | 1012.0 |
| 20260503214821 | 15 | 121 | 3.2 | 6.4 | 0.05 | 0.74 | 0.71 | 94 | 1012.0 |
| 20260503214246 | 15 | 132 | 3.2 | 6.4 | 0.05 | 0.74 | 0.71 | 94 | 1012.0 |
| 20260503213851 | 15 | 112 | 1.6 | 6.4 | 0.05 | 0.74 | 0.71 | 94 | 1012.1 |
| 20260503213703 | 15 | 107 | 3.2 | 8.0 | 0.05 | 0.74 | 0.71 | 94 | 1012.1 |
| 20260503213615 | 15 | 103 | 3.2 | 8.0 | 0.05 | 0.74 | 0.71 | 94 | 1012.2 |
| 20260503213548 | 15 | 117 | 3.2 | 8.0 | 0.05 | 0.74 | 0.71 | 94 | 1012.2 |
| 20260503213411 | 15 | 115 | 3.2 | 8.0 | 0.05 | 0.74 | 0.71 | 94 | 1012.2 |
| 20260503213229 | 15 | 144 | 3.2 | 9.7 | 0.05 | 0.76 | 0.71 | 94 | 1012.1 |
| 20260503213151 | 15 | 132 | 3.2 | 9.7 | 0.05 | 0.74 | 0.71 | 94 | 1012.2 |
| 20260503213036 | 15 | 101 | 3.2 | 9.7 | 0.05 | 0.74 | 0.71 | 94 | 1012.1 |
| 20260503212841 | 15 | 117 | 3.2 | 9.7 | 0.05 | 0.74 | 0.71 | 94 | 1012.1 |
| 20260503212728 | 15 | 161 | 4.8 | 9.7 | 0.05 | 0.74 | 0.71 | 94 | 1012.1 |
| 20260503212651 | 15 | 99 | 4.8 | 9.7 | 0.05 | 0.74 | 0.71 | 94 | 1012.0 |
| 20260503212513 | 15 | 101 | 3.2 | 6.4 | 0.05 | 0.74 | 0.71 | 94 | 1012.1 |
| 20260503212311 | 15 | 80 | 4.8 | 8.0 | 0.05 | 0.74 | 0.71 | 94 | 1012.1 |
| 20260503212240 | 15 | 101 | 4.8 | 8.0 | 0.05 | 0.74 | 0.71 | 93 | 1012.1 |
| 20260503212128 | 15 | 132 | 4.8 | 8.0 | 0.05 | 0.74 | 0.71 | 94 | 1012.2 |
| 20260503211931 | 16 | 142 | 3.2 | 8.0 | 0.05 | 0.74 | 0.71 | 94 | 1012.2 |
| 20260503211750 | 16 | 117 | 4.8 | 8.0 | 0.05 | 0.74 | 0.71 | 94 | 1012.1 |
| 20260503211607 | 16 | 117 | 3.2 | 8.0 | 0.05 | 0.74 | 0.71 | 94 | 1012.1 |
| 20260503211423 | 16 | 134 | 4.8 | 8.0 | 0.05 | 0.74 | 0.71 | 93 | 1012.2 |
| 20260503211351 | 16 | 142 | 4.8 | 8.0 | 0.05 | 0.74 | 0.71 | 94 | 1012.1 |
| 20260503211227 | 16 | 141 | 4.8 | 8.0 | 0.05 | 0.74 | 0.71 | 93 | 1012.1 |
| 20260503211032 | 16 | 130 | 4.8 | 8.0 | 0.05 | 0.74 | 0.71 | 93 | 1012.1 |
| 20260503210914 | 16 | 123 | 3.2 | 8.0 | 0.05 | 0.71 | 0.71 | 93 | 1012.1 |
| 20260503210842 | 16 | 134 | 3.2 | 8.0 | 0.05 | 0.71 | 0.71 | 93 | 1012.1 |
| 20260503210655 | 16 | 130 | 4.8 | 8.0 | 0.05 | 0.71 | 0.69 | 93 | 1012.1 |
| 20260503210240 | 16 | 132 | 3.2 | 8.0 | 0.05 | 0.71 | 0.69 | 93 | 1012.0 |
| 20260503210117 | 16 | 132 | 3.2 | 6.4 | 0.05 | 0.71 | 0.69 | 93 | 1012.0 |
| 20260503205348 | 16 | 111 | 3.2 | 9.7 | 0.05 | 0.71 | 0.69 | 93 | 1011.8 |
| 20260503205213 | 16 | 76 | 3.2 | 9.7 | 0.05 | 0.71 | 0.69 | 93 | 1011.9 |
| 20260503205035 | 16 | 94 | 4.8 | 9.7 | 0.05 | 0.71 | 0.69 | 93 | 1011.7 |
| 20260503203848 | 16 | 105 | 4.8 | 9.7 | 0.05 | 0.71 | 0.69 | 93 | 1011.7 |
| 20260503203711 | 16 | 86 | 3.2 | 9.7 | 0.05 | 0.71 | 0.69 | 93 | 1011.6 |
| 20260503203517 | 16 | 80 | 4.8 | 9.7 | 0.05 | 0.71 | 0.69 | 93 | 1011.6 |
| 20260503203124 | 16 | 103 | 4.8 | 12.9 | 0.05 | 0.71 | 0.66 | 93 | 1011.7 |
| 20260503202931 | 16 | 105 | 6.4 | 12.9 | 0.05 | 0.71 | 0.66 | 93 | 1011.7 |
| 20260503202808 | 16 | 80 | 4.8 | 12.9 | 0.05 | 0.71 | 0.66 | 93 | 1011.7 |
| 20260503202736 | 16 | 93 | 4.8 | 12.9 | 0.05 | 0.71 | 0.66 | 93 | 1011.7 |
| 20260503202200 | 16 | 137 | 6.4 | 12.9 | 0.05 | 0.71 | 0.66 | 93 | 1011.6 |
| 20260503202125 | 16 | 65 | 6.4 | 12.9 | 0.05 | 0.71 | 0.66 | 93 | 1011.8 |
| 20260503202013 | 16 | 117 | 6.4 | 12.9 | 0.05 | 0.71 | 0.66 | 93 | 1011.7 |
| 20260503201818 | 16 | 119 | 6.4 | 14.5 | 0.05 | 0.71 | 0.66 | 93 | 1011.7 |
| 20260503201425 | 16 | 121 | 8.0 | 16.1 | 0.05 | 0.71 | 0.66 | 93 | 1011.6 |
| 20260503201229 | 16 | 86 | 6.4 | 16.1 | 0.05 | 0.71 | 0.66 | 94 | 1011.6 |
| 20260503201048 | 16 | 150 | 6.4 | 16.1 | 0.05 | 0.71 | 0.66 | 94 | 1011.5 |
| 20260503201019 | 16 | 67 | 6.4 | 16.1 | 0.05 | 0.71 | 0.66 | 94 | 1011.6 |
| 20260503200847 | 16 | 105 | 4.8 | 16.1 | 0.05 | 0.71 | 0.66 | 94 | 1011.6 |
| 20260503200649 | 16 | 108 | 8.0 | 16.1 | 0.05 | 0.71 | 0.66 | 94 | 1011.5 |
| 20260503200538 | 16 | 127 | 6.4 | 16.1 | 0.05 | 0.71 | 0.66 | 94 | 1011.5 |
| 20260503200058 | 16 | 124 | 4.8 | 11.3 | 0.05 | 0.71 | 0.64 | 94 | 1011.4 |
| 20260503195926 | 16 | 114 | 6.4 | 11.3 | 0.05 | 0.71 | 0.64 | 94 | 1011.4 |
| 20260503195857 | 16 | 111 | 6.4 | 11.3 | 0.05 | 0.71 | 0.64 | 94 | 1011.4 |
| 20260503195740 | 16 | 107 | 3.2 | 11.3 | 0.05 | 0.71 | 0.64 | 94 | 1011.4 |
| 20260503195548 | 16 | 105 | 6.4 | 11.3 | 0.05 | 0.71 | 0.64 | 94 | 1011.4 |
| 20260503195442 | 16 | 115 | 6.4 | 11.3 | 0.05 | 0.71 | 0.64 | 94 | 1011.4 |
| 20260503195403 | 16 | 109 | 4.8 | 11.3 | 0.05 | 0.71 | 0.64 | 94 | 1011.4 |
| 20260503195209 | 16 | 88 | 3.2 | 11.3 | 0.05 | 0.71 | 0.64 | 94 | 1011.5 |
| 20260503195034 | 16 | 89 | 4.8 | 11.3 | 0.05 | 0.71 | 0.64 | 94 | 1011.4 |
| 20260503195012 | 16 | 134 | 4.8 | 11.3 | 0.05 | 0.71 | 0.64 | 94 | 1011.4 |
| 20260503194448 | 17 | 92 | 3.2 | 11.3 | 0.05 | 0.71 | 0.64 | 94 | 1011.4 |
| 20260503194338 | 17 | 101 | 4.8 | 11.3 | 0.05 | 0.71 | 0.64 | 94 | 1011.4 |
| 20260503194301 | 17 | 84 | 6.4 | 11.3 | 0.05 | 0.71 | 0.64 | 94 | 1011.3 |
| 20260503194101 | 17 | 86 | 3.2 | 8.0 | 0.05 | 0.71 | 0.64 | 94 | 1011.3 |
| 20260503193932 | 17 | 120 | 3.2 | 6.4 | 0.05 | 0.71 | 0.64 | 94 | 1011.4 |
| 20260503193915 | 17 | 107 | 3.2 | 6.4 | 0.05 | 0.71 | 0.64 | 94 | 1011.4 |
| 20260503193758 | 17 | 113 | 3.2 | 6.4 | 0.05 | 0.71 | 0.64 | 94 | 1011.2 |
| 20260503193555 | 17 | 109 | 3.2 | 6.4 | 0.05 | 0.71 | 0.64 | 94 | 1011.3 |
| 20260503193108 | 17 | 110 | 3.2 | 6.4 | 0.03 | 0.71 | 0.64 | 94 | 1011.3 |
| 20260503192916 | 17 | 95 | 3.2 | 6.4 | 0.05 | 0.71 | 0.61 | 94 | 1011.2 |
| 20260503192525 | 17 | 88 | 1.6 | 3.2 | 0.05 | 0.71 | 0.61 | 94 | 1011.2 |
| 20260503192326 | 17 | 53 | 1.6 | 3.2 | 0.05 | 0.71 | 0.61 | 94 | 1011.1 |
| 20260503192213 | 17 | 53 | 0.0 | 3.2 | 0.05 | 0.71 | 0.61 | 94 | 1011.1 |
| 20260503192136 | 17 | 53 | 0.0 | 0.0 | 0.05 | 0.71 | 0.61 | 94 | 1011.1 |
| 20260503191653 | 17 | 53 | 0.0 | 0.0 | 0.05 | 0.71 | 0.61 | 94 | 1010.9 |
| 20260503191545 | 17 | 53 | 0.0 | 0.0 | 0.05 | 0.71 | 0.61 | 93 | 1011.0 |
| 20260503191356 | 17 | 53 | 0.0 | 0.0 | 0.05 | 0.71 | 0.61 | 93 | 1010.9 |
| 20260503191245 | 17 | 53 | 0.0 | 0.0 | 0.05 | 0.71 | 0.61 | 93 | 1011.0 |
| 20260503190538 | 17 | 53 | 0.0 | 3.2 | 0.05 | 0.71 | 0.61 | 93 | 1010.9 |
| 20260503190438 | 17 | 53 | 0.0 | 3.2 | 0.05 | 0.71 | 0.61 | 93 | 1010.9 |
| 20260503190252 | 17 | 53 | 0.0 | 4.8 | 0.05 | 0.71 | 0.61 | 93 | 1010.9 |
| 20260503190125 | 17 | 53 | 1.6 | 4.8 | 0.05 | 0.71 | 0.61 | 93 | 1010.9 |
| 20260503190047 | 17 | 53 | 1.6 | 6.4 | 0.05 | 0.71 | 0.61 | 92 | 1010.9 |
| 20260503190002 | 17 | 53 | 1.6 | 6.4 | 0.05 | 0.71 | 0.61 | 93 | 1010.9 |
| 20260503185346 | 17 | 58 | 3.2 | 6.4 | 0.05 | 0.69 | 0.61 | 92 | 1010.8 |
| 20260503185130 | 17 | 46 | 3.2 | 6.4 | 0.05 | 0.69 | 0.61 | 92 | 1010.9 |
| 20260503184926 | 17 | 44 | 3.2 | 6.4 | 0.05 | 0.69 | 0.61 | 92 | 1010.8 |
| 20260503184839 | 17 | 63 | 3.2 | 6.4 | 0.05 | 0.69 | 0.61 | 92 | 1010.8 |
| 20260503184744 | 17 | 312 | 1.6 | 4.8 | 0.05 | 0.69 | 0.61 | 92 | 1010.8 |
| 20260503184441 | 17 | 148 | 0.0 | 0.0 | 0.05 | 0.69 | 0.61 | 91 | 1010.8 |
| 20260503184425 | 17 | 146 | 4.8 | 9.7 | 0.05 | 0.61 | 0.46 | 94 | 1011.2 |
| 20260503184309 | 17 | 148 | 0.0 | 0.0 | 0.05 | 0.69 | 0.61 | 91 | 1010.8 |
| 20260503184040 | 17 | 148 | 0.0 | 0.0 | 0.05 | 0.69 | 0.61 | 91 | 1010.8 |
| 20260503183840 | 17 | 148 | 0.0 | 0.0 | 0.05 | 0.69 | 0.61 | 91 | 1010.8 |
| 20260503183755 | 17 | 148 | 0.0 | 0.0 | 0.05 | 0.69 | 0.61 | 91 | 1010.7 |
| 20260503183732 | 17 | 148 | 0.0 | 0.0 | 0.05 | 0.69 | 0.61 | 91 | 1010.7 |
| 20260503183440 | 17 | 148 | 0.0 | 0.0 | 0.05 | 0.69 | 0.61 | 91 | 1010.7 |
| 20260503183311 | 17 | 148 | 0.0 | 0.0 | 0.05 | 0.69 | 0.61 | 91 | 1010.8 |
| 20260503183117 | 17 | 148 | 0.0 | 0.0 | 0.05 | 0.69 | 0.61 | 91 | 1010.7 |
| 20260503183016 | 17 | 148 | 0.0 | 0.0 | 0.05 | 0.69 | 0.61 | 90 | 1010.7 |
| 20260503182948 | 17 | 148 | 0.0 | 0.0 | 0.05 | 0.69 | 0.61 | 90 | 1010.8 |
| 20260503182922 | 17 | 148 | 0.0 | 0.0 | 0.05 | 0.66 | 0.61 | 90 | 1010.8 |
| 20260503182659 | 17 | 148 | 0.0 | 0.0 | 0.05 | 0.66 | 0.58 | 90 | 1010.7 |
| 20260503182600 | 17 | 148 | 0.0 | 0.0 | 0.05 | 0.69 | 0.58 | 89 | 1010.7 |
| 20260503182428 | 17 | 148 | 0.0 | 0.0 | 0.05 | 0.69 | 0.58 | 89 | 1010.7 |
| 20260503182322 | 17 | 148 | 0.0 | 0.0 | 0.05 | 0.69 | 0.58 | 89 | 1010.7 |
| 20260503182255 | 17 | 148 | 0.0 | 0.0 | 0.05 | 0.69 | 0.58 | 89 | 1010.7 |
| 20260503182216 | 17 | 148 | 0.0 | 0.0 | 0.05 | 0.69 | 0.58 | 89 | 1010.7 |
| 20260503182107 | 17 | 148 | 0.0 | 0.0 | 0.05 | 0.69 | 0.58 | 89 | 1010.7 |
| 20260503182010 | 17 | 148 | 0.0 | 0.0 | 0.05 | 0.69 | 0.58 | 89 | 1010.7 |
| 20260503181647 | 17 | 148 | 0.0 | 0.0 | 0.05 | 0.69 | 0.58 | 88 | 1010.6 |
| 20260503181317 | 18 | 148 | 0.0 | 0.0 | 0.05 | 0.69 | 0.58 | 89 | 1010.7 |
| 20260503181249 | 18 | 148 | 0.0 | 0.0 | 0.05 | 0.69 | 0.58 | 89 | 1010.7 |
| 20260503181137 | 18 | 148 | 0.0 | 0.0 | 0.05 | 0.69 | 0.58 | 88 | 1010.7 |
| 20260503181044 | 18 | 148 | 0.0 | 0.0 | 0.05 | 0.69 | 0.58 | 88 | 1010.7 |
| 20260503180955 | 18 | 148 | 0.0 | 0.0 | 0.05 | 0.69 | 0.58 | 87 | 1010.7 |
| 20260503180844 | 18 | 148 | 0.0 | 0.0 | 0.05 | 0.66 | 0.56 | 87 | 1010.7 |
| 20260503180538 | 18 | 148 | 0.0 | 0.0 | 0.05 | 0.66 | 0.56 | 87 | 1010.7 |
| 20260503180437 | 18 | 148 | 0.0 | 0.0 | 0.05 | 0.66 | 0.56 | 87 | 1010.7 |
| 20260503180333 | 18 | 148 | 0.0 | 0.0 | 0.05 | 0.66 | 0.56 | 86 | 1010.7 |
| 20260503180248 | 18 | 148 | 0.0 | 0.0 | 0.05 | 0.66 | 0.56 | 86 | 1010.7 |
| 20260503180152 | 18 | 148 | 0.0 | 0.0 | 0.05 | 0.66 | 0.56 | 86 | 1010.7 |
| 20260503180123 | 18 | 148 | 0.0 | 0.0 | 0.05 | 0.66 | 0.56 | 86 | 1010.7 |
| 20260503180052 | 18 | 148 | 0.0 | 0.0 | 0.05 | 0.66 | 0.56 | 86 | 1010.6 |
| 20260503175944 | 18 | 148 | 0.0 | 0.0 | 0.05 | 0.66 | 0.56 | 85 | 1010.7 |
| 20260503175838 | 18 | 148 | 0.0 | 0.0 | 0.05 | 0.66 | 0.56 | 84 | 1010.6 |
| 20260503175546 | 18 | 148 | 0.0 | 0.0 | 0.05 | 0.66 | 0.56 | 84 | 1010.7 |
| 20260503175445 | 18 | 148 | 0.0 | 0.0 | 0.05 | 0.66 | 0.56 | 84 | 1010.7 |
| 20260503175415 | 18 | 148 | 0.0 | 0.0 | 0.05 | 0.66 | 0.56 | 84 | 1010.7 |
| 20260503175351 | 18 | 148 | 0.0 | 0.0 | 0.05 | 0.66 | 0.56 | 84 | 1010.7 |
| 20260503175258 | 18 | 148 | 0.0 | 0.0 | 0.05 | 0.66 | 0.56 | 84 | 1010.7 |
| 20260503175141 | 18 | 148 | 0.0 | 0.0 | 0.05 | 0.66 | 0.56 | 85 | 1010.7 |
| 20260503175048 | 18 | 148 | 0.0 | 0.0 | 0.05 | 0.64 | 0.53 | 84 | 1010.7 |
| 20260503174931 | 18 | 148 | 0.0 | 0.0 | 0.05 | 0.64 | 0.53 | 84 | 1010.7 |
| 20260503174859 | 18 | 148 | 0.0 | 0.0 | 0.05 | 0.64 | 0.53 | 84 | 1010.7 |
| 20260503174833 | 18 | 148 | 0.0 | 0.0 | 0.05 | 0.64 | 0.53 | 84 | 1010.7 |
| 20260503174723 | 18 | 148 | 0.0 | 0.0 | 0.05 | 0.64 | 0.53 | 84 | 1010.7 |
| 20260503174618 | 18 | 148 | 0.0 | 0.0 | 0.05 | 0.64 | 0.53 | 85 | 1010.6 |
| 20260503174524 | 18 | 148 | 0.0 | 0.0 | 0.05 | 0.64 | 0.53 | 85 | 1010.8 |
| 20260503174428 | 18 | 148 | 0.0 | 1.6 | 0.05 | 0.64 | 0.53 | 85 | 1010.8 |
| 20260503174349 | 18 | 148 | 0.0 | 3.2 | 0.05 | 0.64 | 0.53 | 85 | 1010.8 |
| 20260503174328 | 18 | 148 | 0.0 | 3.2 | 0.05 | 0.64 | 0.53 | 85 | 1010.7 |
| 20260503174225 | 18 | 148 | 0.0 | 3.2 | 0.05 | 0.66 | 0.53 | 86 | 1010.7 |
| 20260503174103 | 18 | 148 | 0.0 | 3.2 | 0.05 | 0.66 | 0.53 | 86 | 1010.8 |
| 20260503173933 | 18 | 148 | 1.6 | 3.2 | 0.05 | 0.66 | 0.53 | 85 | 1010.7 |
| 20260503173824 | 18 | 148 | 0.0 | 3.2 | 0.05 | 0.66 | 0.53 | 85 | 1010.8 |
| 20260503173741 | 18 | 148 | 0.0 | 1.6 | 0.05 | 0.66 | 0.53 | 85 | 1010.7 |
| 20260503173714 | 18 | 148 | 0.0 | 1.6 | 0.05 | 0.66 | 0.53 | 85 | 1010.7 |
| 20260503173608 | 18 | 148 | 0.0 | 1.6 | 0.05 | 0.64 | 0.51 | 85 | 1010.8 |
| 20260503173508 | 18 | 148 | 0.0 | 1.6 | 0.05 | 0.64 | 0.51 | 84 | 1010.8 |
| 20260503173201 | 18 | 148 | 0.0 | 1.6 | 0.05 | 0.64 | 0.51 | 84 | 1010.8 |
| 20260503173103 | 18 | 146 | 0.0 | 3.2 | 0.05 | 0.64 | 0.51 | 85 | 1010.9 |
| 20260503172758 | 18 | 146 | 0.0 | 3.2 | 0.05 | 0.64 | 0.51 | 84 | 1010.9 |
| 20260503172647 | 18 | 146 | 0.0 | 4.8 | 0.05 | 0.64 | 0.51 | 84 | 1010.8 |
| 20260503172606 | 18 | 146 | 0.0 | 4.8 | 0.05 | 0.64 | 0.51 | 84 | 1010.8 |
| 20260503172542 | 18 | 146 | 0.0 | 4.8 | 0.05 | 0.64 | 0.51 | 84 | 1010.8 |
| 20260503172420 | 18 | 146 | 1.6 | 4.8 | 0.05 | 0.64 | 0.51 | 83 | 1010.9 |
| 20260503172315 | 18 | 146 | 1.6 | 4.8 | 0.05 | 0.64 | 0.51 | 83 | 1010.8 |
| 20260503172223 | 18 | 150 | 1.6 | 4.8 | 0.05 | 0.64 | 0.51 | 84 | 1010.9 |
| 20260503172100 | 18 | 117 | 0.0 | 4.8 | 0.05 | 0.64 | 0.51 | 84 | 1010.9 |
| 20260503171441 | 18 | 117 | 0.0 | 4.8 | 0.05 | 0.61 | 0.51 | 85 | 1010.8 |
| 20260503171113 | 18 | 117 | 1.6 | 4.8 | 0.05 | 0.61 | 0.51 | 83 | 1010.7 |
| 20260503170319 | 18 | 117 | 3.2 | 4.8 | 0.05 | 0.61 | 0.51 | 84 | 1010.9 |
| 20260503170246 | 18 | 117 | 3.2 | 4.8 | 0.05 | 0.61 | 0.51 | 85 | 1010.8 |
| 20260503170109 | 18 | 128 | 1.6 | 6.4 | 0.05 | 0.61 | 0.51 | 86 | 1010.8 |
| 20260503160206 | 17 | 138 | 4.8 | 11.3 | 0.05 | 0.61 | 0.46 | 94 | 1011.3 |
| 20260503150805 | 17 | 293 | 1.6 | 4.8 | 0.05 | 0.58 | 0.43 | 88 | 1012.1 |
| 20260503150645 | 17 | 186 | 1.6 | 9.7 | 0.05 | 0.58 | 0.43 | 87 | 1012.1 |
| 20260503150524 | 18 | 189 | 1.6 | 9.7 | 0.05 | 0.58 | 0.43 | 86 | 1012.2 |
| 20260503150517 | 18 | 189 | 1.6 | 9.7 | 0.05 | 0.58 | 0.43 | 86 | 1012.2 |
| 20260503150344 | 18 | 262 | 0.0 | 9.7 | 0.05 | 0.58 | 0.43 | 87 | 1012.1 |
| 20260503150209 | 18 | 142 | 1.6 | 9.7 | 0.05 | 0.58 | 0.43 | 86 | 1012.1 |
| 20260503150138 | 18 | 142 | 4.8 | 9.7 | 0.05 | 0.58 | 0.43 | 85 | 1012.2 |
| 20260503131202 | 19 | 134 | 4.8 | 9.7 | 0.03 | 0.53 | 0.36 | 79 | 1012.7 |
| 20260503131150 | 19 | 121 | 4.8 | 9.7 | 0.03 | 0.53 | 0.36 | 79 | 1012.7 |
| 20260503130654 | 19 | 91 | 1.6 | 9.7 | 0.03 | 0.53 | 0.36 | 79 | 1012.7 |
| 20260503130611 | 19 | 126 | 3.2 | 9.7 | 0.03 | 0.53 | 0.36 | 78 | 1012.7 |
| 20260503130520 | 19 | 122 | 4.8 | 9.7 | 0.03 | 0.53 | 0.36 | 78 | 1012.7 |
| 20260503130342 | 19 | 120 | 3.2 | 14.5 | 0.05 | 0.53 | 0.36 | 79 | 1012.7 |
| 20260503110822 | 19 | 138 | 6.4 | 16.1 | 0.05 | 0.51 | 0.33 | 82 | 1013.1 |
| 20260503110731 | 18 | 123 | 4.8 | 16.1 | 0.05 | 0.51 | 0.33 | 81 | 1013.1 |
| 20260503110220 | 18 | 98 | 6.4 | 16.1 | 0.03 | 0.51 | 0.30 | 81 | 1013.2 |
| 20260503100223 | 17 | 116 | 4.8 | 11.3 | 0.03 | 0.48 | 0.28 | 87 | 1013.5 |
| 20260503100156 | 17 | 88 | 4.8 | 11.3 | 0.03 | 0.48 | 0.28 | 87 | 1013.4 |
| 20260503090253 | 16 | 66 | 0.0 | 8.0 | 0.03 | 0.46 | 0.25 | 99 | 1013.6 |
| 20260503090128 | 16 | 66 | 3.2 | 8.0 | 0.03 | 0.46 | 0.25 | 99 | 1013.6 |
| 20260503081530 | 15 | 145 | 1.6 | 4.8 | 0.03 | 0.46 | 0.23 | 100 | 1013.7 |
| 20260503081406 | 15 | 145 | 1.6 | 4.8 | 0.03 | 0.46 | 0.23 | 99 | 1013.6 |
| 20260503081254 | 15 | 94 | 1.6 | 4.8 | 0.03 | 0.46 | 0.23 | 99 | 1013.6 |
| 20260503081244 | 15 | 94 | 1.6 | 4.8 | 0.03 | 0.46 | 0.23 | 99 | 1013.7 |
| 20260503081103 | 15 | 117 | 3.2 | 4.8 | 0.03 | 0.46 | 0.23 | 99 | 1013.6 |
| 20260503080939 | 15 | 134 | 3.2 | 4.8 | 0.03 | 0.46 | 0.23 | 100 | 1013.7 |
| 20260503080853 | 15 | 145 | 3.2 | 4.8 | 0.03 | 0.46 | 0.23 | 100 | 1013.7 |
| 20260503080352 | 15 | 96 | 1.6 | 4.8 | 0.03 | 0.46 | 0.23 | 100 | 1013.7 |
| 20260503080214 | 15 | 153 | 0.0 | 6.4 | 0.03 | 0.46 | 0.23 | 100 | 1013.6 |
| 20260503080158 | 15 | 170 | 0.0 | 6.4 | 0.03 | 0.46 | 0.23 | 100 | 1013.6 |
| 20260503072835 | 15 | 87 | 0.0 | 4.8 | 0.03 | 0.43 | 0.23 | 100 | 1013.5 |
| 20260503072703 | 15 | 87 | 1.6 | 4.8 | 0.03 | 0.43 | 0.23 | 100 | 1013.5 |
| 20260503072448 | 15 | 103 | 1.6 | 4.8 | 0.03 | 0.43 | 0.23 | 100 | 1013.4 |
| 20260503072316 | 15 | 126 | 1.6 | 4.8 | 0.03 | 0.43 | 0.23 | 100 | 1013.4 |
| 20260503072156 | 15 | 65 | 3.2 | 4.8 | 0.03 | 0.43 | 0.23 | 100 | 1013.4 |
| 20260503072132 | 15 | 65 | 3.2 | 4.8 | 0.03 | 0.43 | 0.23 | 100 | 1013.3 |
| 20260503072010 | 15 | 83 | 1.6 | 4.8 | 0.03 | 0.43 | 0.23 | 100 | 1013.4 |
| 20260503071838 | 15 | 57 | 1.6 | 4.8 | 0.03 | 0.43 | 0.23 | 100 | 1013.4 |
| 20260503071823 | 15 | 57 | 1.6 | 4.8 | 0.03 | 0.43 | 0.23 | 100 | 1013.3 |
| 20260503071704 | 14 | 74 | 0.0 | 4.8 | 0.03 | 0.43 | 0.23 | 100 | 1013.3 |
| 20260503071218 | 14 | 76 | 3.2 | 4.8 | 0.03 | 0.43 | 0.23 | 100 | 1013.3 |
| 20260503071151 | 14 | 76 | 3.2 | 4.8 | 0.03 | 0.43 | 0.23 | 100 | 1013.3 |
| 20260503070521 | 14 | 83 | 1.6 | 4.8 | 0.03 | 0.43 | 0.23 | 100 | 1013.3 |
| 20260503070324 | 14 | 123 | 3.2 | 4.8 | 0.03 | 0.43 | 0.23 | 100 | 1013.3 |
| 20260503070136 | 14 | 123 | 0.0 | 4.8 | 0.03 | 0.43 | 0.23 | 100 | 1013.3 |